Location: �terpigny
(49.8910°N, 2.9249°E)
Time: 07:05:09
(UTC+00:00)

CUBESAT XI-V - Pass Details

Date: 03 July 2022
Orbit: 667 x 690 km, 98.1° (Epoch: 08 August)

Event Time Altitude Azimuth Distance (km) Brightness Sun altitude
Exits shadow 02:31:17 12° 220° (SW) 1,984 ? -9.1°
Maximum altitude 02:34:28 22° 268° (W) 1,451 ? -8.8°
Drops below altitude 10° 02:38:04 10° 320° (NW) 2,109 ? -8.4°
Sets 02:40:45 0° 335° (NNW) 3,026 ? -8.2°
